COMPASS 2

Last updated on Sat Jun 24 2023 00:03:48 GMT+0000 (Coordinated Universal Time)

1 42777U 17036N 23174.11168766 .04487462 22931-5 16699-2 0 9997 2 42777 97.1145 221.2663 0012013 245.9244 114.0791 16.24324317334494

Satellite not in orbit

COMPASS 2